TimeCDT,TemperatureF,Dew PointF,Humidity,Sea Level PressureIn,VisibilityMPH,Wind Direction,Wind SpeedMPH,Gust SpeedMPH,PrecipitationIn,Events,Conditions,WindDirDegrees,DateUTC
12:14 AM,14.9,10.4,82,30.23,10.0,NW,13.8,-,N/A,,Clear,310,2013-03-13 05:14:00
12:54 AM,13.1,9.3,85,30.24,10.0,NW,11.5,-,N/A,,Clear,310,2013-03-13 05:54:00
1:14 AM,12.9,9.0,84,30.24,10.0,WNW,10.4,-,N/A,,Clear,300,2013-03-13 06:14:00
1:33 AM,13.3,9.3,84,30.24,10.0,WNW,11.5,-,N/A,,Clear,300,2013-03-13 06:33:00
1:54 AM,12.4,8.8,85,30.25,10.0,NW,9.2,-,N/A,,Clear,310,2013-03-13 06:54:00
2:33 AM,11.1,7.9,87,30.27,10.0,WNW,8.1,-,N/A,,Clear,290,2013-03-13 07:33:00
2:54 AM,10.8,7.7,87,30.27,10.0,WNW,6.9,-,N/A,,Clear,300,2013-03-13 07:54:00
3:14 AM,8.8,6.1,89,30.27,10.0,WNW,5.8,-,N/A,,Clear,290,2013-03-13 08:14:00
3:54 AM,9.0,6.4,89,30.27,10.0,WNW,6.9,-,N/A,,Clear,290,2013-03-13 08:54:00
4:14 AM,8.1,5.7,90,30.28,10.0,WNW,8.1,-,N/A,,Clear,290,2013-03-13 09:14:00
4:34 AM,7.7,5.7,92,30.28,10.0,West,8.1,-,N/A,,Clear,280,2013-03-13 09:34:00
4:54 AM,7.5,5.2,90,30.29,10.0,WNW,6.9,-,N/A,,Clear,290,2013-03-13 09:54:00
5:14 AM,7.0,4.8,91,30.30,10.0,WNW,8.1,-,N/A,,Clear,290,2013-03-13 10:14:00
5:34 AM,7.2,4.6,89,30.30,10.0,WNW,5.8,-,N/A,,Clear,290,2013-03-13 10:34:00
5:54 AM,6.3,3.9,90,30.31,-9999.0,West,5.8,-,N/A,,Unknown,280,2013-03-13 10:54:00
6:14 AM,5.7,3.4,90,30.31,-9999.0,WNW,6.9,-,N/A,,Unknown,290,2013-03-13 11:14:00
6:34 AM,5.9,3.7,91,30.32,-9999.0,WNW,5.8,-,N/A,,Unknown,290,2013-03-13 11:34:00
6:54 AM,2.1,-0.9,87,30.32,-9999.0,WSW,4.6,-,N/A,,Unknown,250,2013-03-13 11:54:00
7:14 AM,1.9,-0.8,88,30.33,-9999.0,West,5.8,-,N/A,,Unknown,260,2013-03-13 12:14:00
7:34 AM,2.7,0.3,90,30.33,-9999.0,West,5.8,-,N/A,,Unknown,280,2013-03-13 12:34:00
7:54 AM,1.2,-1.5,88,30.33,10.0,West,4.6,-,N/A,,Clear,270,2013-03-13 12:54:00
8:14 AM,1.8,-0.9,88,30.34,10.0,West,4.6,-,N/A,,Clear,280,2013-03-13 13:14:00
8:34 AM,2.8,0.1,88,30.34,10.0,West,4.6,-,N/A,,Clear,280,2013-03-13 13:34:00
8:54 AM,3.7,1.2,89,30.34,10.0,West,5.8,-,N/A,,Clear,270,2013-03-13 13:54:00
9:14 AM,5.7,2.7,87,30.35,10.0,WNW,4.6,-,N/A,,Clear,290,2013-03-13 14:14:00
9:34 AM,8.6,5.9,89,30.36,10.0,WNW,8.1,-,N/A,,Clear,290,2013-03-13 14:34:00
9:54 AM,9.3,5.9,86,30.37,10.0,WNW,5.8,-,N/A,,Clear,290,2013-03-13 14:54:00
10:14 AM,10.2,6.8,86,30.37,10.0,West,6.9,-,N/A,,Clear,280,2013-03-13 15:14:00
10:34 AM,11.1,7.0,83,30.37,10.0,West,5.8,-,N/A,,Clear,280,2013-03-13 15:34:00
10:50 AM,12.2,7.7,82,30.38,10.0,West,5.8,-,N/A,,Clear,260,2013-03-13 15:50:00
11:14 AM,13.1,8.4,82,30.38,10.0,WSW,4.6,-,N/A,,Clear,250,2013-03-13 16:14:00
11:34 AM,13.8,8.8,80,30.38,10.0,West,5.8,-,N/A,,Clear,260,2013-03-13 16:34:00
11:54 AM,14.4,9.0,79,30.38,10.0,WSW,6.9,-,N/A,,Clear,250,2013-03-13 16:54:00
12:13 PM,15.4,10.0,79,30.38,10.0,WSW,5.8,-,N/A,,Clear,250,2013-03-13 17:13:00
12:34 PM,16.3,10.9,79,30.38,10.0,SW,6.9,-,N/A,,Clear,230,2013-03-13 17:34:00
12:54 PM,17.2,12.2,81,30.38,10.0,WSW,9.2,-,N/A,,Clear,250,2013-03-13 17:54:00
1:13 PM,17.6,12.6,81,30.38,10.0,West,8.1,-,N/A,,Clear,260,2013-03-13 18:13:00
1:34 PM,18.0,12.9,81,30.38,10.0,WSW,6.9,-,N/A,,Clear,250,2013-03-13 18:34:00
1:54 PM,19.0,13.8,80,30.37,10.0,West,3.5,-,N/A,,Clear,270,2013-03-13 18:54:00
2:09 PM,19.9,14.5,80,30.36,10.0,West,3.5,-,N/A,,Clear,260,2013-03-13 19:09:00
2:34 PM,20.8,14.9,78,30.36,10.0,WSW,5.8,-,N/A,,Clear,250,2013-03-13 19:34:00
2:53 PM,21.2,14.9,77,30.35,10.0,WSW,5.8,-,N/A,,Clear,250,2013-03-13 19:53:00
3:13 PM,21.6,15.4,77,30.35,10.0,WSW,6.9,-,N/A,,Clear,250,2013-03-13 20:13:00
3:34 PM,22.1,16.5,79,30.35,10.0,West,8.1,-,N/A,,Clear,260,2013-03-13 20:34:00
3:48 PM,22.1,16.7,80,30.34,10.0,WSW,6.9,-,N/A,,Clear,250,2013-03-13 20:48:00
4:14 PM,22.1,16.3,79,30.34,10.0,West,6.9,-,N/A,,Clear,260,2013-03-13 21:14:00
4:34 PM,22.6,16.7,78,30.33,10.0,SW,4.6,-,N/A,,Clear,230,2013-03-13 21:34:00
4:54 PM,22.6,15.6,74,30.32,10.0,WSW,4.6,-,N/A,,Clear,240,2013-03-13 21:54:00
5:14 PM,22.1,15.8,77,30.31,10.0,Calm,Calm,-,N/A,,Clear,0,2013-03-13 22:14:00
5:34 PM,21.7,15.4,77,30.30,10.0,Calm,Calm,-,N/A,,Clear,0,2013-03-13 22:34:00
5:54 PM,22.5,15.8,76,30.30,10.0,South,3.5,-,N/A,,Clear,180,2013-03-13 22:54:00
6:14 PM,21.2,14.9,77,30.30,10.0,Calm,Calm,-,N/A,,Clear,0,2013-03-13 23:14:00
6:34 PM,20.8,15.3,79,30.31,10.0,South,3.5,-,N/A,,Clear,190,2013-03-13 23:34:00
6:54 PM,21.0,15.3,78,30.31,10.0,Calm,Calm,-,N/A,,Clear,0,2013-03-13 23:54:00
7:13 PM,20.5,15.4,81,30.31,10.0,Calm,Calm,-,N/A,,Clear,0,2013-03-14 00:13:00
7:34 PM,18.9,14.5,83,30.30,10.0,Calm,Calm,-,N/A,,Clear,0,2013-03-14 00:34:00
7:54 PM,18.5,14.2,83,30.29,10.0,SE,4.6,-,N/A,,Clear,130,2013-03-14 00:54:00
8:14 PM,18.5,14.4,84,30.29,10.0,Calm,Calm,-,N/A,,Clear,0,2013-03-14 01:14:00
8:34 PM,18.5,14.5,85,30.28,10.0,ESE,3.5,-,N/A,,Clear,120,2013-03-14 01:34:00
8:54 PM,18.5,14.7,85,30.26,10.0,ESE,5.8,-,N/A,,Clear,120,2013-03-14 01:54:00
9:14 PM,19.0,14.9,84,30.26,10.0,SE,3.5,-,N/A,,Clear,130,2013-03-14 02:14:00
9:30 PM,18.9,14.9,85,30.26,10.0,ESE,3.5,-,N/A,,Clear,120,2013-03-14 02:30:00
9:54 PM,19.2,15.8,87,30.24,10.0,ESE,5.8,-,N/A,,Mostly Cloudy,120,2013-03-14 02:54:00
10:14 PM,19.9,16.3,86,30.23,10.0,SE,4.6,-,N/A,,Overcast,130,2013-03-14 03:14:00
10:29 PM,20.3,16.5,85,30.23,10.0,SE,6.9,-,N/A,,Overcast,130,2013-03-14 03:29:00
10:45 PM,21.2,17.6,86,30.22,10.0,SE,5.8,-,N/A,,Overcast,130,2013-03-14 03:45:00
11:02 PM,21.2,17.4,85,30.22,10.0,SE,6.9,-,N/A,,Mostly Cloudy,130,2013-03-14 04:02:00
11:14 PM,21.2,17.8,87,30.22,10.0,SE,3.5,-,N/A,,Overcast,140,2013-03-14 04:14:00
11:25 PM,21.9,18.5,87,30.22,10.0,Calm,Calm,-,N/A,,Overcast,0,2013-03-14 04:25:00
11:47 PM,23.0,19.4,86,30.21,10.0,SE,5.8,-,N/A,,Overcast,140,2013-03-14 04:47:00